TimeMDT,TemperatureF,Dew PointF,Humidity,Sea Level PressureIn,VisibilityMPH,Wind Direction,Wind SpeedMPH,Gust SpeedMPH,PrecipitationIn,Events,Conditions,WindDirDegrees,DateUTC
12:53 AM,59.0,55.9,90,30.13,10.0,Calm,Calm,-,N/A,,Scattered Clouds,0,2013-08-03 06:53:00
1:53 AM,57.0,54.0,89,30.12,10.0,East,3.5,-,N/A,,Mostly Cloudy,80,2013-08-03 07:53:00
2:53 AM,55.9,53.1,90,30.12,10.0,SE,3.5,-,N/A,,Clear,130,2013-08-03 08:53:00
3:53 AM,55.0,53.1,93,30.12,10.0,ENE,5.8,-,N/A,,Clear,70,2013-08-03 09:53:00
4:53 AM,55.0,53.1,93,30.12,10.0,Calm,Calm,-,N/A,,Clear,0,2013-08-03 10:53:00
5:53 AM,55.0,53.1,93,30.14,10.0,ENE,6.9,-,N/A,,Clear,70,2013-08-03 11:53:00
6:53 AM,57.9,55.0,90,30.15,10.0,East,5.8,-,N/A,,Clear,90,2013-08-03 12:53:00
7:53 AM,62.1,57.0,84,30.16,10.0,ESE,6.9,-,N/A,,Clear,120,2013-08-03 13:53:00
8:53 AM,66.0,55.0,68,30.17,10.0,SE,13.8,-,N/A,,Clear,130,2013-08-03 14:53:00
9:53 AM,69.1,55.0,61,30.16,10.0,SE,11.5,-,N/A,,Clear,130,2013-08-03 15:53:00
10:53 AM,71.1,54.0,55,30.17,10.0,SSE,10.4,19.6,N/A,,Clear,150,2013-08-03 16:53:00
11:53 AM,73.0,53.1,49,30.17,10.0,SE,12.7,20.7,N/A,,Clear,130,2013-08-03 17:53:00
12:53 PM,75.0,53.1,46,30.16,10.0,SE,11.5,23.0,N/A,,Clear,130,2013-08-03 18:53:00
1:53 PM,75.9,53.1,45,30.15,10.0,SE,15.0,21.9,N/A,,Clear,130,2013-08-03 19:53:00
2:53 PM,78.1,54.0,43,30.14,10.0,SE,13.8,23.0,N/A,,Scattered Clouds,140,2013-08-03 20:53:00
3:53 PM,78.1,54.0,43,30.12,10.0,SE,13.8,21.9,N/A,,Clear,130,2013-08-03 21:53:00
4:53 PM,77.0,54.0,45,30.11,10.0,SE,18.4,24.2,N/A,,Clear,130,2013-08-03 22:53:00
5:53 PM,75.9,54.0,46,30.09,10.0,SE,17.3,23.0,N/A,,Clear,130,2013-08-03 23:53:00
6:53 PM,73.0,54.0,51,30.08,10.0,ESE,12.7,20.7,N/A,,Clear,120,2013-08-04 00:53:00
7:53 PM,70.0,55.0,59,30.08,10.0,SE,15.0,19.6,N/A,,Clear,130,2013-08-04 01:53:00
8:53 PM,69.1,55.9,63,30.06,10.0,SE,15.0,24.2,N/A,,Scattered Clouds,130,2013-08-04 02:53:00
9:53 PM,68.0,57.0,68,30.09,10.0,ESE,16.1,25.3,N/A,,Partly Cloudy,120,2013-08-04 03:53:00
10:53 PM,68.0,57.0,68,30.08,10.0,ESE,16.1,23.0,N/A,,Overcast,110,2013-08-04 04:53:00
11:27 PM,66.2,57.2,73,30.13,10.0,ESE,17.3,25.3,0.01,Rain-Thunderstorm,Light Rain,120,2013-08-04 05:27:00
11:53 PM,64.9,57.9,78,30.09,10.0,ESE,15.0,-,0.03,Rain-Thunderstorm,Light Thunderstorms and Rain,110,2013-08-04 05:53:00